Regional Weather Roundup
Issued by NWS

Home | Current Version | Previous Version | Graphics & Text | Print | Product List | Glossary On
Versions: 1 2 3 4 5 6 7 8 9 10 11 12 13 14 15 16 17 18 19 20 21 22 23 24 25 26 27 28 29 30 31 32 33 34 35 36 37 38 39 40 41 42 43 44 45 46 47 48 49 50
000
ASUS43 KLMK 272110
RWRKY
KENTUCKY REGIONAL WEATHER ROUNDUP
NATIONAL WEATHER SERVICE LOUISVILLE KY
500 PM EDT FRI MAR 27 2015

NOTE "FAIR" INDICATES FEW OR NO CLOUDS BELOW 12,000 FEET
WITH NO SIGNIFICANT WEATHER AND/OR OBSTRUCTIONS TO VISIBILITY.

KYZ001>023-026-027-061>063-070>075-272200-
WESTERN AND SOUTH CENTRAL KENTUCKY

CITY           SKY/WX    TMP DP  RH WIND       PRES   REMARKS
PADUCAH        CLOUDY    41  27  57 N14G22    30.10S
HENDERSON      CLOUDY    37  21  52 NW13      30.09S WCI  29
OWENSBORO      PTSUNNY   39  25  58 N15G21    30.08S WCI  30
HOPKINSVILLE   CLOUDY    39  32  75 N12G23    30.05R WCI  32
BOWLING GREEN  CLOUDY    41  30  65 NW8       30.03R
GLASGOW        CLOUDY    40  30  66 N14       30.01R WCI  32
$$

KYZ024-025-028>034-038-045-046-053-272200-
NORTH CENTRAL KENTUCKY

CITY           SKY/WX    TMP DP  RH WIND       PRES   REMARKS
LOUISVILLE/SDF FLURRIES  39  25  57 N9        30.04S WCI  33
LOUISVILLE/LOU FLURRIES  37  23  56 N10       30.04S WCI  30
FORT KNOX      CLOUDY    38  23  56 NW8       30.01S WCI  32
$$

KYZ035>037-039>044-047>052-055>060-089>105-272200-
NORTHEAST KENTUCKY

CITY           SKY/WX    TMP DP  RH WIND       PRES   REMARKS
LEXINGTON      CLOUDY    37  24  59 NW14      29.98S WCI  28
COVINGTON      CLOUDY    34  16  47 NW17      30.01S WCI  23
FRANKFORT      CLOUDY    37  22  54 NW14      30.00S WCI  28
$$

KYZ054-064>069-076>088-106>120-272200-
SOUTHEAST KENTUCKY

CITY           SKY/WX    TMP DP  RH WIND       PRES   REMARKS
JACKSON        CLOUDY    39  25  57 NW8G21    29.90R WCI  33
LONDON         CLOUDY    42  24  49 NW14G21   29.92S
SOMERSET       CLOUDY    37  27  65 N10       29.97S WCI  30
MIDDLESBORO    CLOUDY    46  29  52 NW13G20   29.90R
MONTICELLO     CLOUDY    42  28  58 NW9       29.99R
$$




USA.gov is the U.S. government's official web portal to all federal, state and local government web resources and services.